Location: Izdebno
(52.6670°N, 16.2170°E)
Time: 04:37:07
(UTC+02:00)

Transit 2A - Pass Details

Date: 03 March 2024
Orbit: 596 x 956 km, 66.7° (Epoch: 21 April)

Event Time Altitude Azimuth Distance (km) Brightness Sun altitude
Rises 18:25:46 0° 216° (SW) 2,839 9.5 -8.0°
Reaches altitude 10° 18:28:00 10° 216° (SW) 1,932 8.6 -8.3°
Maximum altitude 18:32:18 86° 129° (SE) 610 5.5 -9.0°
Drops below altitude 10° 18:36:45 10° 40° (NE) 1,993 7.8 -9.6°
Sets 18:39:04 0° 40° (NE) 2,938 8.7 -10.0°
